SPACEBEE-33 (46944 NORAD) Tracking and Keplerian Element Data
This shows tracking and keplerian element data for the satellite.
Feedback or suggestion? Click here.
Element | Value |
Catalog | 46944 |
Name | SPACEBEE-33 |
Epoch Orbit | 894 |
Epoch Day | 17.95322555 |
Epoch Year | 2021 |
RAAN | 157.3086 |
Inclination | 97.3716 |
Eccentricity | 0.0016364 |
Argument of Perigee | 103.2 |
Mean Anonmoly | 257.1061 |
Mean Motion | 15.20972192 |
Decay Rate | 3.527E-05 |
L1 | 1 46944U 20085R 21017.95322555 .00003527 00000-0 16176-3 0 9990 |
L2 | 2 46944 97.3716 157.3086 0016364 103.2000 257.1061 15.20972192 8949 |
Live tracking and technical data element details for SPACEBEE-33 (NORAD 46944). SPACEBEE-33 can be tracked NOW for your location showing map with azimuth and elevation plus other details from your city location.
Track the satellite on the map from your city or location and see movement details for azimuth, elevation, latitude, longitude, range, height, and movement on the map or in text.
IsCatalogInMostPopularTable: catalog: 46944, numindb: 29
Update: records affected: 1
GetName: 46944 SPACEBEE-33
Hit Count: updated at: Mon, 18 Jan 2021 16:58:13 GMT